Location: Brati?a
(46.1333°N, 22.7833°E)
Time: 05:21:38
(UTC+00:00)

Daily predictions for brighter satellites

Satellite Brightness Start Highest point End
(mag) Time Altitude Azimuth Time Altitude Azimuth Time Altitude Azimuth
CZ-2D R/B 2.9 00:00:07 10° NNE 00:04:27 52° NE 00:04:27 52° NE
Cosmos 2333 Rocket 3.6 00:04:20 10° NNW 00:07:03 29° NW 00:07:03 29° NW
Cosmos 1937 Rocket 4.3 00:16:36 48° NE 00:16:36 48° NE 00:20:28 10° NNE
Tsikada Rocket 4.5 00:15:33 51° ESE 00:16:05 52° E 00:22:16 10° NNE
Cosmos 2237 Rocket 2.9 00:10:44 10° NNW 00:16:16 50° ENE 00:17:06 46° E
CZ-4B R/B 4.4 00:12:51 10° NNE 00:16:03 42° NNE 00:16:03 42° NNE
Cosmos 2034 Rocket 4.0 00:12:59 10° N 00:19:07 80° NE 00:19:07 80° NE
Cosmos 2285 Rocket 4.1 00:20:09 66° NW 00:20:09 66° NW 00:26:03 10° NNE
Meteor 1-27 Rocket 3.9 00:24:54 69° NE 00:24:54 69° NE 00:30:04 10° NNE
Cosmos 1898 Rocket 4.1 00:31:30 51° N 00:31:30 51° N 00:35:30 10° NNE
SL-16 R/B 2.9 00:31:32 54° NW 00:31:32 54° NW 00:36:33 10° NNW
USA 238 DEB 4.2 00:31:32 42° SE 00:32:06 43° ESE 00:38:30 10° NE
USA 238 4.3 00:31:37 42° SE 00:32:12 43° ESE 00:38:37 10° NE
Cosmos 2297 Rocket 2.9 00:36:37 43° ESE 00:36:48 43° ESE 00:42:08 10° NE
Meteor 1-11 Rocket 4.3 00:37:42 10° NNW 00:42:23 50° NW 00:42:23 50° NW
Cosmos 1743 4.5 00:40:28 10° N 00:43:08 31° NE 00:43:08 31° NE
Cosmos 2219 3.3 00:45:56 67° ESE 00:46:00 67° ESE 00:51:44 10° NNE
USA 234 4.3 00:41:32 10° E 00:47:38 43° NNE 00:53:44 10° NW
AQUA 4.4 00:45:53 10° N 00:49:37 53° N 00:49:37 53° N
Cosmos 2219 Rocket 4.1 00:47:29 10° NW 00:49:01 18° NW 00:49:01 18° NW
NOSS 3-2 (A) 3.6 00:55:27 53° SE 00:56:04 55° ESE 01:02:21 10° NE
CENTAUR R/B 3.6 00:59:00 28° SE 01:00:48 33° ESE 01:06:41 10° NE
IRS-1D 3.4 00:57:57 10° NNE 01:02:48 76° NW 01:02:48 76° NW
Cosmos 2227 Rocket 2.4 01:02:32 56° SSE 01:03:17 62° ESE 01:08:52 10° NNE
ADEOS II 1.9 01:02:28 10° NNE 01:07:46 85° ESE 01:08:11 75° S
STARLINK-1052 4.3 01:10:56 50° E 01:10:56 50° E 01:14:09 10° ENE
Cosmos 2150 Rocket 4.1 01:10:04 63° SSE 01:10:47 73° ESE 01:16:16 10° NNE
Cosmos 2298 Rocket 3.9 01:11:00 71° SSE 01:11:31 80° ESE 01:16:52 10° NNE
STARLINK-1009 4.5 01:13:05 44° N 01:13:05 44° N 01:16:51 10° NE
SJ 16-02 3.3 01:14:58 19° NW 01:14:58 19° NW 01:17:23 10° N
CZ-2D R/B 4.3 01:10:30 10° NNE 01:14:32 43° E 01:15:01 41° ESE
Cosmos 1782 Rocket 3.8 01:10:39 10° N 01:14:59 64° ENE 01:15:20 62° ESE
STARLINK-1015 4.5 01:17:50 43° NNW 01:17:50 43° NNW 01:21:47 10° NE
Okean 1-7 3.1 01:18:14 75° ESE 01:18:16 75° E 01:22:41 10° NNE
STARLINK-1027 3.9 01:19:27 68° E 01:19:27 68° E 01:23:15 10° ENE
Cosmos 1980 4.0 01:13:33 10° NW 01:18:04 47° WNW 01:18:04 47° WNW
Cosmos 2242 Rocket 3.9 01:19:37 57° NW 01:19:37 57° NW 01:23:38 10° N
Resurs 1-4 Rocket 3.1 01:14:33 10° N 01:18:58 32° WNW 01:18:58 32° WNW
CZ-4C R/B 4.5 01:21:00 30° NNE 01:21:00 30° NNE 01:22:51 10° N
STARLINK-1033 3.9 01:20:30 65° E 01:20:30 65° E 01:24:07 10° ENE
IDEFIX/ARIANE 42P 3.9 01:16:38 10° NNE 01:21:24 35° E 01:24:49 17° SSE
Cosmos 468 4.5 01:16:19 10° NNW 01:21:42 88° ENE 01:24:23 30° SSE
STARLINK-1016 4.5 01:22:38 41° NNW 01:22:51 41° NNW 01:26:48 10° NE
Cosmos 1703 Rocket 3.5 01:23:06 85° WNW 01:23:06 85° WNW 01:27:34 10° N
STARLINK-1031 3.6 01:26:52 82° NNE 01:26:52 82° NNE 01:30:59 10° ENE
NOSS 3-2 (C) 3.7 01:25:54 40° S 01:27:46 58° ESE 01:34:06 10° NE
ARIANE 5 R/B 2.5 01:24:27 10° NNE 01:29:43 89° W 01:31:00 53° SSW
STARLINK-1024 3.6 01:30:03 83° NE 01:30:03 83° NE 01:34:04 10° ENE
Spot 4 Rocket 4.2 01:26:05 10° NNE 01:31:15 72° ESE 01:33:06 40° S
H-2A R/B 1.9 01:34:44 66° WNW 01:34:44 66° WNW 01:38:32 10° NNW
STARLINK-1035 3.5 01:34:49 83° NW 01:34:51 83° NNW 01:39:02 10° ENE
IRS-1C 4.1 01:29:43 10° N 01:35:00 63° WNW 01:36:02 52° WSW
CZ-4B R/B 3.6 01:33:42 10° SE 01:36:40 27° ENE 01:39:39 10° N
SL-16 R/B 2.3 01:31:23 10° NNW 01:37:05 79° ENE 01:42:45 10° SSE
STARLINK-1032 3.5 01:39:37 74° WNW 01:39:51 78° NNW 01:44:01 10° ENE
TRAILBLAZER 4.4 01:35:52 10° NW 01:40:27 77° SW 01:44:58 10° SSE
Cosmos 2082 3.8 01:38:18 37° S 01:40:35 73° ESE 01:46:20 10° NNE
STARLINK-43 4.0 01:39:46 36° NNW 01:40:54 52° NNE 01:44:31 10° ESE
Lacrosse 5 rocket 3.4 01:41:23 14° NW 01:43:03 18° N 01:45:52 10° NE
Cosmos 389 Rocket 3.2 01:43:11 41° SE 01:43:56 49° E 01:47:22 10° NNE
STARLINK-1011 3.5 01:44:24 65° WNW 01:44:51 74° NNW 01:49:00 10° ENE
CZ-2D R/B 3.6 01:41:04 10° NNW 01:45:10 22° WNW 01:45:47 22° WNW
Cosmos 1634 Rocket 4.2 01:42:35 10° NNW 01:48:28 48° W 01:50:17 37° SW
deb Chang Zheng 4 4.4 01:44:52 10° NNE 01:49:04 48° E 01:51:45 20° SSE
STARLINK-1036 3.7 01:49:12 57° W 01:49:51 69° NNW 01:54:00 10° ENE
STARLINK-1044 3.8 01:53:59 50° W 01:54:50 65° NNW 01:58:59 10° ENE
USA 267 3.2 01:48:49 10° NE 01:55:23 81° SE 01:58:53 31° SW
Okean 3 3.7 01:53:49 29° S 01:55:50 68° E 02:00:00 10° NNE
STARLINK-1022 4.4 01:55:34 34° S 01:56:34 41° SE 02:00:29 10° ENE
SL-08 R/B 4.2 01:58:00 32° W 01:58:00 32° W 02:02:05 10° NNW
ATLAS 3B R/B 3.4 01:53:20 17° S 01:58:09 47° ESE 02:04:28 10° NE
STARLINK-1047 3.8 01:58:44 44° W 01:59:48 61° NNW 02:03:56 10° NE
Cosmos 2237 Rocket 3.3 01:55:18 10° NW 01:58:51 26° W 01:58:51 26° W
Cosmos 1515 3.6 01:59:51 56° WSW 02:00:21 64° W 02:04:10 10° N
STARLINK-1037 3.8 01:59:23 43° W 02:00:29 61° NNW 02:04:36 10° NE
STARLINK-1042 4.3 02:00:20 34° S 02:01:31 44° SE 02:05:28 10° ENE
Cosmos 1900 4.4 02:00:23 40° WSW 02:01:57 60° NW 02:06:48 10° NNE
Meteor 1-19 Rocket 4.1 01:59:40 30° SSW 02:02:27 69° WNW 02:07:57 10° N
SeaSat 1 4.2 01:59:20 10° ESE 02:03:46 34° NE 02:08:11 10° NNW
Cosmos 494 Rocket 3.9 01:59:44 10° NNW 02:05:00 74° WSW 02:10:15 10° SSE
ATLAS 5 CENTAUR R/B 2.9 01:59:36 10° NNW 02:05:12 60° NE 02:11:41 10° SE
Okean 1 4.2 02:06:03 31° WNW 02:06:03 31° WNW 02:09:33 10° N
Cosmos 1544 3.1 02:02:46 10° NNW 02:06:21 55° W 02:06:48 50° SW
STARLINK-1056 4.2 02:05:07 34° SSW 02:06:28 48° SE 02:10:29 10° ENE
Cosmos 1818 3.5 02:01:39 10° NW 02:07:09 89° ENE 02:12:35 10° SE
Cosmos 1300 Rocket 3.6 02:03:37 10° N 02:07:57 80° E 02:12:16 10° SSE
STARLINK-1059 4.0 02:08:19 34° W 02:09:48 55° NNW 02:13:53 10° NE
Cosmos 2221 Rocket 3.5 02:07:56 26° SSW 02:10:23 82° W 02:14:50 10° N
STARLINK-1054 4.1 02:09:53 33° SSW 02:11:24 52° SE 02:15:27 10° ENE
Cosmos 2263 Rocket 3.9 02:07:32 10° SSE 02:12:24 30° ESE 02:17:18 10° NE
STARLINK-1057 4.1 02:13:06 30° W 02:14:48 52° NNW 02:18:52 10° NE
Landsat 5 3.8 02:15:51 35° WSW 02:15:59 35° W 02:19:34 10° NNW
ASTRO F (AKARI) 4.3 02:12:43 10° NNE 02:16:12 89° E 02:17:43 31° SSW
STARLINK-1062 3.9 02:14:40 31° SSW 02:16:22 57° SE 02:20:27 10° ENE
Okean 2 Rocket 3.0 02:13:12 10° NNW 02:17:41 68° W 02:22:10 10° S
Sich 1 Rocket 4.0 02:14:50 10° NNW 02:18:55 39° W 02:20:31 28° SW
Cosmos 2151 Rocket 3.5 02:14:44 10° N 02:19:10 87° E 02:23:34 10° S
STARLINK-1034 4.2 02:17:53 27° W 02:19:48 49° NNW 02:23:51 10° NE
Cosmos 1975 3.6 02:16:43 10° NNW 02:20:18 31° W 02:20:39 30° WSW
Cosmos 2297 Rocket 3.1 02:18:26 24° W 02:20:57 34° NW 02:26:07 10° NNE
PSLV R/B 3.9 02:16:35 10° NNE 02:20:57 66° ESE 02:25:18 10° S
STARLINK-1053 3.8 02:19:28 29° SW 02:21:21 62° SE 02:25:28 10° ENE
USA 238 DEB 4.1 02:18:58 23° WSW 02:22:59 49° NW 02:29:45 10° NNE
USA 238 4.1 02:19:03 23° WSW 02:23:06 50° NW 02:29:52 10° NNE
Cosmos 1689 Rocket 3.2 02:20:44 10° SSE 02:23:37 46° ENE 02:26:31 10° N
Cosmos 1356 3.2 02:20:33 10° NNW 02:24:00 75° W 02:27:24 10° S
STARLINK-1068 4.3 02:22:39 24° W 02:24:47 47° NNW 02:28:49 10° NE
BREEZE-M DEB (TANK) 4.0 02:22:14 17° WNW 02:25:08 62° N 02:33:24 10° E
Cosmos 1269 Rocket 3.9 02:20:40 10° NNW 02:25:58 70° WSW 02:31:14 10° S
STARLINK-1061 3.8 02:24:13 28° SW 02:26:18 67° SE 02:30:25 10° ENE
USA 234 3.2 02:23:44 10° SE 02:30:18 89° SW 02:36:53 10° NW
CZ-2C R/B 3.4 02:26:42 10° N 02:30:31 40° WNW 02:32:21 25° SW
Meteor 2-4 Rocket 3.8 02:25:31 14° SSW 02:30:36 65° WNW 02:36:28 10° N
STARLINK-1067 3.7 02:29:02 26° SW 02:31:17 72° SE 02:35:26 10° ENE
COBE Rocket 4.2 02:28:42 11° SSW 02:33:04 41° W 02:37:31 10° NNW
STARLINK-1060 4.4 02:32:12 19° W 02:34:47 43° NNW 02:38:46 10° NE
STARLINK-1058 3.6 02:33:47 24° SW 02:36:14 77° SSE 02:40:24 10° ENE
Nadezhda 4 Rocket 4.0 02:30:16 10° SSW 02:36:34 71° W 02:42:55 10° N
Geosat 4.3 02:33:01 10° NNE 02:38:03 68° ESE 02:43:03 10° SSW
STARLINK-1030 4.5 02:37:00 17° W 02:39:48 42° NNW 02:43:46 10° NE
Cosmos 1125 Rocket 4.3 02:37:44 20° WSW 02:40:49 36° WNW 02:45:44 10° N
STARLINK-1043 3.6 02:38:35 22° SW 02:41:14 83° SSE 02:45:24 10° ENE
STARLINK-1065 3.6 02:39:11 21° SW 02:41:52 84° SE 02:46:01 10° ENE
ADEOS II 3.8 02:43:40 10° NNW 02:46:46 16° WNW 02:49:08 12° W
NOSS 3-2 (A) 4.3 02:42:51 15° W 02:47:13 37° NW 02:53:28 10° NNE
MSX 3.9 02:41:47 10° N 02:47:31 66° WNW 02:53:13 10° SSW
Cosmos 2227 Rocket 3.5 02:44:21 15° W 02:47:46 26° NW 02:52:28 10° N
Cosmos 2227 4.4 02:44:14 10° SSW 02:49:49 72° ESE 02:55:26 10° NNE
CENTAUR R/B 2.8 02:46:11 16° WSW 02:51:03 57° NW 02:58:07 10° NE
STARLINK-1063 3.6 02:48:09 18° WSW 02:51:12 86° NNW 02:55:22 10° ENE
STARLINK-41 4.4 02:49:26 10° NW 02:52:25 36° NNE 02:55:23 10° E
H-2A R/B 4.4 02:51:36 10° NNE 02:55:13 30° E 02:58:42 10° SSE
Cosmos 1943 3.5 02:50:00 10° NNW 02:55:44 76° ENE 03:01:26 10° SSE
STARLINK-1064 3.6 02:52:56 16° WSW 02:56:11 81° NNW 03:00:20 10° ENE
STARLINK-42 4.1 02:55:36 10° NW 02:58:42 43° NNE 03:01:48 10° E
STARLINK-80 3.5 02:55:51 10° WNW 02:59:40 77° NNE 03:03:28 10° ESE
IDEFIX/ARIANE 42P 3.3 02:56:19 10° N 03:00:57 34° WNW 03:05:35 10° SW
STARLINK-1041 3.7 02:57:42 15° WSW 03:01:08 76° NNW 03:05:18 10° ENE
Okean 1 Rocket 3.0 02:59:41 10° NNW 03:04:03 71° W 03:08:25 10° S
STARLINK-1038 3.7 03:02:29 13° WSW 03:06:07 71° NNW 03:10:16 10° ENE
Cosmos 1766 4.3 03:03:07 10° N 03:06:56 51° ENE 03:10:42 10° SSE
ARIANE 5 R/B 4.4 03:05:13 10° NNW 03:08:05 15° WNW 03:10:57 10° W
BREEZE-M DEB (TANK) 1.4 03:05:30 12° WSW 03:08:13 70° NNW 03:10:17 10° ENE
CZ-4B R/B 2.8 03:06:17 10° SW 03:08:58 21° W 03:11:41 10° NW
Cosmos 1975 Rocket 4.2 03:05:43 10° SSE 03:09:53 48° E 03:14:08 10° NNE
Cosmos 1553 Rocket 4.5 03:04:07 10° N 03:10:25 69° E 03:16:46 10° SSE
CZ-2C R/B 2.2 03:06:01 10° N 03:10:34 65° WNW 03:15:06 10° SSW
STARLINK-1046 3.8 03:07:16 12° WSW 03:11:07 67° NNW 03:15:15 10° ENE
BREEZE-M DEB (TANK) 4.4 03:10:12 10° W 03:12:40 15° SW 03:15:00 10° SSW
SJ-6F 4.4 03:09:02 10° N 03:13:11 74° WNW 03:17:20 10° SSW
CZ-4B R/B 4.0 03:10:25 10° NNE 03:14:21 73° ESE 03:18:05 10° S
STARLINK-1039 3.8 03:12:03 10° WSW 03:16:07 63° NNW 03:20:14 10° ENE
Meteor 1-4 Rocket 3.8 03:14:24 10° SW 03:17:38 26° WNW 03:20:51 10° NNW
STARLINK-43 4.1 03:15:20 10° WNW 03:18:41 32° SW 03:22:00 10° SSE
NOSS 3-2 (C) 4.4 03:13:33 10° W 03:19:03 36° NW 03:25:17 10° NNE
SL-16 R/B 3.6 03:17:00 10° WNW 03:20:29 17° W 03:23:56 10° SW
STARLINK-1045 3.9 03:17:00 10° WSW 03:21:07 59° NNW 03:25:13 10° NE
COSMO-SKYMED 1 3.4 03:18:28 10° SSE 03:22:43 57° ENE 03:27:00 10° N
Gbstr 26 Del rocket 4.1 03:17:10 10° SW 03:23:08 55° SE 03:27:57 10° ENE
Lacrosse 5 rocket 3.6 03:20:24 10° NW 03:23:24 20° NNE 03:26:30 10° ENE
PSLV R/B 4.1 03:19:39 10° S 03:23:46 54° W 03:27:54 10° NNW
STARLINK-26 3.1 03:20:29 10° WNW 03:23:58 79° SSW 03:27:25 10° SE
ADEOS 3.9 03:19:40 10° N 03:24:41 48° WNW 03:29:40 10° SW
Cosmos 1674 Rocket 4.4 03:21:45 10° SW 03:25:41 32° WNW 03:29:38 10° N
STARLINK-1050 4.0 03:22:01 10° WSW 03:26:06 56° NNW 03:30:12 10° NE
